Regional Weather Roundup
Issued by NWS

Home | Current Version | Previous Version | Text Only | Print | Product List | Glossary On
Versions: 1 2 3 4 5 6 7 8 9 10 11 12 13 14 15 16 17 18 19 20 21 22 23 24 25 26 27 28 29 30 31 32 33 34 35 36 37 38 39 40 41 42 43 44 45 46 47 48 49 50
000
ASUS43 KLMK 042310
RWRKY
KENTUCKY REGIONAL WEATHER ROUNDUP
NATIONAL WEATHER SERVICE LOUISVILLE KY
700 PM EDT WED MAY 04 2016

NOTE "FAIR" INDICATES FEW OR NO CLOUDS BELOW 12,000 FEET
WITH NO SIGNIFICANT WEATHER AND/OR OBSTRUCTIONS TO VISIBILITY.

KYZ001>023-026-027-061>063-070>075-050000-
WESTERN AND SOUTH CENTRAL KENTUCKY

CITY           SKY/WX    TMP DP  RH WIND       PRES   REMARKS
PADUCAH        SUNNY     67  41  38 N15       29.79R
HENDERSON      MOSUNNY   61  39  44 N10       29.78S
OWENSBORO      PTSUNNY   62  42  47 NW17G28   29.77R
HOPKINSVILLE   SUNNY     65  42  43 NW13G25   29.75R
BOWLING GREEN  MOSUNNY   65  41  41 NW10G20   29.73R
GLASGOW        MOSUNNY   61  46  58 N10       29.72R
$$

KYZ024-025-028>034-038-045-046-053-050000-
NORTH CENTRAL KENTUCKY

CITY           SKY/WX    TMP DP  RH WIND       PRES   REMARKS
LOUISVILLE/SDF MOSUNNY   61  43  51 N12       29.71S
LOUISVILLE/LOU MOSUNNY   60  41  49 N10G20    29.72S
FORT KNOX      MOSUNNY   58  47  66 NW8       29.71R
$$

KYZ035>037-039>044-047>052-055>060-089>105-050000-
NORTHEAST KENTUCKY

CITY           SKY/WX    TMP DP  RH WIND       PRES   REMARKS
LEXINGTON      MOSUNNY   57  45  64 N13       29.69S
COVINGTON      MOSUNNY   56  39  53 NW20G25   29.70R
FRANKFORT      MOSUNNY   58  43  57 NW12G17   29.69S
$$

KYZ054-064>069-076>088-106>120-050000-
SOUTHEAST KENTUCKY

CITY           SKY/WX    TMP DP  RH WIND       PRES   REMARKS
JACKSON        PTSUNNY   51  47  86 CALM      29.69S
LONDON         CLOUDY    48  46  93 N3        29.70F
SOMERSET       MOSUNNY   52  46  82 W3        29.72R
MIDDLESBORO    CLOUDY    56  51  84 N3        29.70S
MONTICELLO     CLOUDY    58  50  75 NW12G20   29.73R
$$




USA.gov is the U.S. government's official web portal to all federal, state and local government web resources and services.